| time (UTC) | temp F | wind direction | speed MPH | gust MPH | rain 1hr in | rain 24hr in | rain mn in | humidity % | barometer mb |
| 20260901131517 | 76 | 296 | 26.0 | 51.0 | 0.00 | 0.00 | 0.00 | 66 | 1015.8 |
| 20260901130522 | 75 | 282 | 36.0 | 50.0 | 0.00 | 0.00 | 0.00 | 66 | 1015.9 |
| 20260901125517 | 74 | 285 | 32.0 | 42.0 | 0.00 | 0.00 | 0.00 | 68 | 1015.8 |
| 20260901124522 | 74 | 291 | 29.0 | 42.0 | 0.00 | 0.00 | 0.00 | 68 | 1015.7 |
| 20260901123518 | 74 | 299 | 27.0 | 40.0 | 0.00 | 0.00 | 0.00 | 67 | 1015.8 |
| 20260901122601 | 75 | 293 | 25.0 | 39.0 | 0.00 | 0.00 | 0.00 | 66 | 1015.8 |
| 20260901121517 | 75 | 283 | 23.0 | 35.0 | 0.00 | 0.00 | 0.00 | 63 | 1015.6 |
| 20260901120517 | 76 | 288 | 18.0 | 23.0 | 0.00 | 0.00 | 0.00 | 62 | 1015.6 |
| 20260901115518 | 76 | 293 | 19.0 | 30.0 | 0.00 | 0.00 | 0.00 | 62 | 1015.7 |
| 20260901114522 | 76 | 286 | 24.0 | 37.0 | 0.00 | 0.00 | 0.00 | 61 | 1015.8 |
| 20260901113517 | 77 | 273 | 27.0 | 41.0 | 0.00 | 0.00 | 0.00 | 60 | 1015.6 |
| 20260901112521 | 77 | 277 | 27.0 | 40.0 | 0.00 | 0.00 | 0.00 | 58 | 1015.5 |
| 20260901111518 | 78 | 302 | 15.0 | 26.0 | 0.00 | 0.00 | 0.00 | 57 | 1015.3 |
| 20260901110522 | 78 | 294 | 12.0 | 21.0 | 0.00 | 0.00 | 0.00 | 57 | 1015.2 |
| 20260901105517 | 78 | 255 | 17.0 | 24.0 | 0.00 | 0.00 | 0.00 | 56 | 1015.3 |
| 20260901104557 | 78 | 257 | 20.0 | 28.0 | 0.00 | 0.00 | 0.00 | 56 | 1015.4 |
| 20260901103520 | 78 | 237 | 19.0 | 25.0 | 0.00 | 0.00 | 0.00 | 55 | 1015.2 |
| 20260901102517 | 78 | 241 | 16.0 | 21.0 | 0.00 | 0.00 | 0.00 | 54 | 1015.1 |
| 20260901101522 | 78 | 233 | 21.0 | 29.0 | 0.00 | 0.00 | 0.00 | 52 | 1015.1 |
| 20260901100522 | 79 | 219 | 17.0 | 23.0 | 0.00 | 0.00 | 0.00 | 50 | 1015.1 |
| 20260901095517 | 79 | 251 | 17.0 | 26.0 | 0.00 | 0.00 | 0.00 | 48 | 1015.0 |
| 20260901094518 | 79 | 256 | 18.0 | 26.0 | 0.00 | 0.00 | 0.00 | 48 | 1015.1 |
| 20260901093518 | 79 | 250 | 16.0 | 24.0 | 0.00 | 0.00 | 0.00 | 49 | 1014.9 |
| 20260901092521 | 78 | 223 | 17.0 | 24.0 | 0.00 | 0.00 | 0.00 | 48 | 1014.9 |
| 20260901091518 | 78 | 203 | 12.0 | 18.0 | 0.00 | 0.00 | 0.00 | 49 | 1014.8 |
| 20260901090522 | 77 | 171 | 10.0 | 13.0 | 0.00 | 0.00 | 0.00 | 51 | 1014.8 |
| 20260901085519 | 77 | 124 | 8.0 | 16.0 | 0.00 | 0.00 | 0.00 | 52 | 1014.6 |
| 20260901084522 | 77 | 125 | 8.0 | 11.0 | 0.00 | 0.00 | 0.00 | 52 | 1014.7 |
| 20260901083517 | 77 | 153 | 7.0 | 12.0 | 0.00 | 0.00 | 0.00 | 51 | 1014.8 |
| 20260901082542 | 77 | 136 | 11.0 | 18.0 | 0.00 | 0.00 | 0.00 | 50 | 1014.8 |
| 20260901081518 | 77 | 123 | 13.0 | 22.0 | 0.00 | 0.00 | 0.00 | 50 | 1014.7 |
| 20260901080523 | 77 | 168 | 13.0 | 21.0 | 0.00 | 0.00 | 0.00 | 49 | 1014.7 |
| 20260901075516 | 76 | 128 | 13.0 | 28.0 | 0.00 | 0.00 | 0.00 | 50 | 1014.6 |
| 20260901074541 | 76 | 124 | 16.0 | 26.0 | 0.00 | 0.00 | 0.00 | 50 | 1014.4 |
| 20260901073517 | 76 | 134 | 19.0 | 32.0 | 0.00 | 0.00 | 0.00 | 50 | 1014.3 |
| 20260901072521 | 76 | 127 | 16.0 | 23.0 | 0.00 | 0.00 | 0.00 | 49 | 1014.4 |
| 20260901071518 | 75 | 126 | 16.0 | 26.0 | 0.00 | 0.00 | 0.00 | 51 | 1014.4 |
| 20260901070522 | 74 | 112 | 17.0 | 25.0 | 0.00 | 0.00 | 0.00 | 53 | 1014.5 |
| 20260901065518 | 74 | 114 | 18.0 | 29.0 | 0.00 | 0.00 | 0.00 | 53 | 1014.4 |
| 20260901064521 | 73 | 109 | 18.0 | 28.0 | 0.00 | 0.00 | 0.00 | 54 | 1014.4 |
| 20260901063517 | 72 | 111 | 14.0 | 26.0 | 0.00 | 0.00 | 0.00 | 57 | 1014.3 |
| 20260901062521 | 72 | 101 | 16.0 | 21.0 | 0.00 | 0.00 | 0.00 | 57 | 1014.2 |
| 20260901061518 | 72 | 107 | 16.0 | 23.0 | 0.00 | 0.00 | 0.00 | 56 | 1014.3 |
| 20260901060520 | 71 | 117 | 12.0 | 22.0 | 0.00 | 0.00 | 0.00 | 56 | 1014.3 |
| 20260901055521 | 71 | 116 | 9.0 | 20.0 | 0.00 | 0.00 | 0.00 | 58 | 1014.3 |
| 20260901054521 | 70 | 118 | 13.0 | 18.0 | 0.00 | 0.00 | 0.00 | 58 | 1014.3 |
| 20260901053522 | 70 | 106 | 13.0 | 19.0 | 0.00 | 0.00 | 0.00 | 58 | 1014.3 |
| 20260901052542 | 70 | 101 | 13.0 | 20.0 | 0.00 | 0.00 | 0.00 | 57 | 1014.3 |
| 20260901051518 | 70 | 121 | 17.0 | 23.0 | 0.00 | 0.00 | 0.00 | 57 | 1014.4 |
| 20260901050517 | 70 | 117 | 16.0 | 24.0 | 0.00 | 0.00 | 0.00 | 55 | 1014.3 |
| 20260901045537 | 71 | 94 | 13.0 | 20.0 | 0.00 | 0.00 | 0.00 | 52 | 1014.2 |
| 20260901044522 | 71 | 122 | 12.0 | 20.0 | 0.00 | 0.00 | 0.00 | 53 | 1014.3 |
| 20260901043537 | 70 | 101 | 11.0 | 15.0 | 0.00 | 0.00 | 0.00 | 53 | 1014.3 |
| 20260901042521 | 68 | 98 | 14.0 | 21.0 | 0.00 | 0.00 | 0.00 | 55 | 1014.2 |
| 20260901041517 | 68 | 106 | 13.0 | 17.0 | 0.00 | 0.00 | 0.00 | 56 | 1014.2 |
| 20260901040521 | 67 | 105 | 13.0 | 20.0 | 0.00 | 0.00 | 0.00 | 56 | 1014.0 |
| 20260901035517 | 67 | 97 | 15.0 | 21.0 | 0.00 | 0.00 | 0.00 | 56 | 1014.0 |
| 20260901034518 | 67 | 110 | 14.0 | 17.0 | 0.00 | 0.00 | 0.00 | 56 | 1014.0 |
| 20260901033520 | 67 | 95 | 15.0 | 24.0 | 0.00 | 0.00 | 0.00 | 55 | 1013.8 |
| 20260901032520 | 66 | 97 | 8.0 | 13.0 | 0.00 | 0.00 | 0.00 | 56 | 1013.8 |
| 20260901031517 | 67 | 104 | 8.0 | 16.0 | 0.00 | 0.00 | 0.00 | 56 | 1013.7 |
| 20260901030522 | 66 | 120 | 11.0 | 16.0 | 0.00 | 0.00 | 0.00 | 56 | 1013.7 |
| 20260901025518 | 66 | 83 | 7.0 | 10.0 | 0.00 | 0.00 | 0.00 | 57 | 1013.8 |
| 20260901024542 | 67 | 163 | 4.0 | 7.0 | 0.00 | 0.00 | 0.00 | 55 | 1013.8 |
| 20260901023516 | 67 | 113 | 6.0 | 15.0 | 0.00 | 0.00 | 0.00 | 54 | 1013.9 |
| 20260901022519 | 67 | 107 | 5.0 | 13.0 | 0.00 | 0.00 | 0.00 | 55 | 1013.9 |
| 20260901021516 | 68 | 137 | 4.0 | 9.0 | 0.00 | 0.00 | 0.00 | 54 | 1014.0 |
| 20260901020521 | 69 | 145 | 7.0 | 12.0 | 0.00 | 0.00 | 0.00 | 51 | 1014.1 |
| 20260901015517 | 70 | 115 | 18.0 | 22.0 | 0.00 | 0.00 | 0.00 | 50 | 1014.1 |
| 20260901014542 | 70 | 108 | 16.0 | 21.0 | 0.00 | 0.00 | 0.00 | 50 | 1014.2 |
| 20260901013517 | 70 | 103 | 18.0 | 28.0 | 0.00 | 0.00 | 0.00 | 50 | 1014.3 |
| 20260901012520 | 70 | 109 | 17.0 | 26.0 | 0.00 | 0.00 | 0.00 | 50 | 1014.2 |
| 20260901011517 | 70 | 75 | 12.0 | 21.0 | 0.00 | 0.00 | 0.00 | 51 | 1014.2 |
| 20260901010520 | 70 | 102 | 11.0 | 17.0 | 0.00 | 0.00 | 0.00 | 51 | 1014.4 |
| 20260901005518 | 70 | 100 | 13.0 | 19.0 | 0.00 | 0.00 | 0.00 | 52 | 1014.4 |
| 20260901004522 | 70 | 104 | 13.0 | 22.0 | 0.00 | 0.00 | 0.00 | 52 | 1014.4 |
| 20260901003538 | 70 | 105 | 12.0 | 17.0 | 0.00 | 0.00 | 0.00 | 52 | 1014.4 |
| 20260901002521 | 70 | 109 | 15.0 | 21.0 | 0.00 | 0.00 | 0.00 | 52 | 1014.4 |
| 20260901001517 | 71 | 114 | 14.0 | 21.0 | 0.00 | 0.00 | 0.00 | 52 | 1014.4 |
| 20260901000541 | 71 | 124 | 11.0 | 15.0 | 0.00 | 0.00 | 0.00 | 52 | 1014.6 |
| 20260831235518 | 72 | 121 | 13.0 | 32.0 | 0.00 | 0.00 | 0.00 | 51 | 1014.6 |
| 20260831234520 | 72 | 121 | 14.0 | 23.0 | 0.00 | 0.00 | 0.00 | 51 | 1014.7 |
| 20260831233517 | 72 | 118 | 15.0 | 19.0 | 0.00 | 0.00 | 0.00 | 51 | 1014.7 |
| 20260831232521 | 73 | 118 | 14.0 | 23.0 | 0.00 | 0.00 | 0.00 | 51 | 1014.8 |
| 20260831231517 | 73 | 125 | 14.0 | 24.0 | 0.00 | 0.00 | 0.00 | 51 | 1014.9 |
| 20260831230517 | 73 | 126 | 15.0 | 28.0 | 0.00 | 0.00 | 0.00 | 52 | 1014.9 |
| 20260831225518 | 73 | 123 | 13.0 | 18.0 | 0.00 | 0.00 | 0.00 | 52 | 1015.0 |
| 20260831224521 | 73 | 122 | 14.0 | 28.0 | 0.00 | 0.00 | 0.00 | 52 | 1015.1 |
| 20260831223517 | 73 | 127 | 13.0 | 23.0 | 0.00 | 0.00 | 0.00 | 52 | 1015.3 |
| 20260831222522 | 73 | 124 | 17.0 | 33.0 | 0.00 | 0.00 | 0.00 | 53 | 1015.4 |
| 20260831221518 | 72 | 125 | 12.0 | 22.0 | 0.00 | 0.00 | 0.00 | 54 | 1015.4 |
| 20260831220516 | 72 | 124 | 12.0 | 19.0 | 0.00 | 0.00 | 0.00 | 54 | 1015.4 |
| 20260831215516 | 72 | 123 | 16.0 | 24.0 | 0.00 | 0.00 | 0.00 | 55 | 1015.5 |
| 20260831214523 | 72 | 119 | 10.0 | 21.0 | 0.00 | 0.00 | 0.00 | 54 | 1015.5 |
| 20260831213517 | 73 | 123 | 11.0 | 17.0 | 0.00 | 0.00 | 0.00 | 54 | 1015.5 |
| 20260831212539 | 73 | 118 | 13.0 | 21.0 | 0.00 | 0.00 | 0.00 | 53 | 1015.5 |
| 20260831211517 | 73 | 120 | 17.0 | 26.0 | 0.00 | 0.00 | 0.00 | 53 | 1015.5 |
| 20260831210541 | 73 | 132 | 13.0 | 22.0 | 0.00 | 0.00 | 0.00 | 53 | 1015.4 |
| 20260831205517 | 74 | 126 | 12.0 | 21.0 | 0.00 | 0.00 | 0.00 | 52 | 1015.4 |
| 20260831204517 | 74 | 123 | 12.0 | 25.0 | 0.00 | 0.00 | 0.00 | 52 | 1015.3 |
| 20260831203518 | 75 | 123 | 12.0 | 21.0 | 0.00 | 0.00 | 0.00 | 50 | 1015.3 |
| 20260831202519 | 75 | 121 | 12.0 | 16.0 | 0.00 | 0.00 | 0.00 | 50 | 1015.2 |
| 20260831201539 | 75 | 116 | 13.0 | 19.0 | 0.00 | 0.00 | 0.00 | 49 | 1015.1 |
| 20260831200519 | 75 | 112 | 11.0 | 20.0 | 0.00 | 0.00 | 0.00 | 48 | 1015.0 |
| 20260831195517 | 76 | 104 | 13.0 | 17.0 | 0.00 | 0.00 | 0.00 | 48 | 1014.9 |
| 20260831194519 | 76 | 109 | 13.0 | 17.0 | 0.00 | 0.00 | 0.00 | 47 | 1014.8 |
| 20260831193537 | 76 | 106 | 12.0 | 16.0 | 0.00 | 0.00 | 0.00 | 47 | 1014.8 |
| 20260831192517 | 76 | 114 | 11.0 | 14.0 | 0.00 | 0.00 | 0.00 | 47 | 1014.7 |
| 20260831191517 | 76 | 114 | 11.0 | 15.0 | 0.00 | 0.00 | 0.00 | 47 | 1014.7 |
| 20260831190522 | 77 | 108 | 11.0 | 15.0 | 0.00 | 0.00 | 0.00 | 47 | 1014.7 |
| 20260831185517 | 77 | 109 | 14.0 | 20.0 | 0.00 | 0.00 | 0.00 | 47 | 1014.8 |
| 20260831184522 | 77 | 108 | 13.0 | 17.0 | 0.00 | 0.00 | 0.00 | 47 | 1014.8 |
| 20260831183518 | 77 | 105 | 13.0 | 17.0 | 0.00 | 0.00 | 0.00 | 46 | 1014.7 |
| 20260831182558 | 78 | 108 | 12.0 | 15.0 | 0.00 | 0.00 | 0.00 | 46 | 1014.7 |
| 20260831181518 | 78 | 109 | 13.0 | 15.0 | 0.00 | 0.00 | 0.00 | 46 | 1014.7 |
| 20260831180521 | 78 | 118 | 11.0 | 16.0 | 0.00 | 0.00 | 0.00 | 46 | 1014.6 |
| 20260831175521 | 78 | 123 | 11.0 | 16.0 | 0.00 | 0.00 | 0.00 | 46 | 1014.6 |
| 20260831174522 | 79 | 119 | 9.0 | 15.0 | 0.00 | 0.00 | 0.00 | 46 | 1014.5 |
| 20260831173516 | 79 | 126 | 8.0 | 13.0 | 0.00 | 0.00 | 0.00 | 45 | 1014.4 |
| 20260831172523 | 80 | 125 | 9.0 | 11.0 | 0.00 | 0.00 | 0.00 | 45 | 1014.3 |
| 20260831171523 | 80 | 112 | 9.0 | 13.0 | 0.00 | 0.00 | 0.00 | 44 | 1014.1 |
| 20260831170522 | 81 | 117 | 9.0 | 13.0 | 0.00 | 0.00 | 0.00 | 44 | 1014.1 |
| 20260831165517 | 81 | 118 | 10.0 | 16.0 | 0.00 | 0.00 | 0.00 | 43 | 1014.1 |
| 20260831164521 | 82 | 116 | 9.0 | 15.0 | 0.00 | 0.00 | 0.00 | 42 | 1014.0 |
| 20260831163517 | 83 | 118 | 8.0 | 11.0 | 0.00 | 0.00 | 0.00 | 41 | 1013.9 |
| 20260831162541 | 84 | 132 | 8.0 | 12.0 | 0.00 | 0.00 | 0.00 | 40 | 1013.9 |
| 20260831161517 | 85 | 130 | 7.0 | 11.0 | 0.00 | 0.00 | 0.00 | 40 | 1013.9 |
| 20260831160521 | 86 | 137 | 8.0 | 13.0 | 0.00 | 0.00 | 0.00 | 39 | 1013.9 |
| 20260831155557 | 86 | 133 | 6.0 | 12.0 | 0.00 | 0.00 | 0.00 | 38 | 1014.0 |
| 20260831154521 | 87 | 129 | 10.0 | 17.0 | 0.00 | 0.00 | 0.00 | 37 | 1014.0 |
| 20260831153517 | 87 | 120 | 18.0 | 27.0 | 0.00 | 0.00 | 0.00 | 36 | 1014.1 |
| 20260831152522 | 88 | 120 | 17.0 | 29.0 | 0.00 | 0.00 | 0.00 | 36 | 1014.1 |
| 20260831151516 | 88 | 127 | 15.0 | 29.0 | 0.00 | 0.00 | 0.00 | 36 | 1014.0 |
| 20260831150521 | 88 | 126 | 16.0 | 24.0 | 0.00 | 0.00 | 0.00 | 36 | 1013.9 |
| 20260831145516 | 89 | 134 | 15.0 | 28.0 | 0.00 | 0.00 | 0.00 | 36 | 1014.0 |
| 20260831144520 | 89 | 126 | 14.0 | 30.0 | 0.00 | 0.00 | 0.00 | 36 | 1014.0 |
| 20260831143556 | 89 | 135 | 15.0 | 25.0 | 0.00 | 0.00 | 0.00 | 37 | 1014.1 |
| 20260831142519 | 89 | 115 | 14.0 | 23.0 | 0.00 | 0.00 | 0.00 | 35 | 1014.2 |
| 20260831141517 | 90 | 148 | 16.0 | 28.0 | 0.00 | 0.00 | 0.00 | 37 | 1014.2 |
| 20260831140518 | 90 | 140 | 13.0 | 19.0 | 0.00 | 0.00 | 0.00 | 36 | 1014.1 |
| 20260831135518 | 90 | 129 | 12.0 | 23.0 | 0.00 | 0.00 | 0.00 | 36 | 1014.1 |
| 20260831134522 | 90 | 118 | 15.0 | 22.0 | 0.00 | 0.00 | 0.00 | 37 | 1014.2 |
| 20260831133522 | 90 | 136 | 12.0 | 19.0 | 0.00 | 0.00 | 0.00 | 37 | 1014.4 |
| 20260831132520 | 90 | 133 | 15.0 | 26.0 | 0.00 | 0.00 | 0.00 | 37 | 1014.4 |